Wind_Speed
12 12 12 12 12 12 12 11 10 9 8 6 5 6 6 6 6 7 6 6 7 7 7 6 5 5 4 4 5 5 6 7 8 8 10 11 12 13 14 14 15 17 17 18
12 12 12 11 12 12 11 11 10 9 7 6 5 4 5 5 6 6 6 6 6 6 6 5 5 5 5 5 5 6 7 7 8 9 10 11 12 13 13 14 15 16 17 18
12 11 11 11 11 12 11 10 9 10 8 7 6 5 4 4 5 5 6 6 6 5 5 5 4 4 4 5 6 7 7 8 8 9 10 11 12 13 13 14 15 16 17 18
11 12 12 12 12 11 11 10 9 9 9 8 6 5 4 3 4 5 5 6 6 5 5 5 4 4 4 5 6 6 7 8 8 9 9 11 12 12 13 14 15 16 17 18
11 11 12 12 12 11 11 11 10 10 8 7 5 5 5 3 3 3 4 5 5 5 5 5 4 4 4 5 5 6 7 7 8 9 9 11 12 13 13 14 15 15 17 17
10 10 11 12 11 12 13 12 11 9 8 8 7 5 4 2 2 3 4 4 4 4 5 5 4 3 3 4 5 6 7 7 8 9 9 11 12 13 13 14 15 15 16 17
10 10 11 12 14 15 14 12 11 9 7 8 7 4 5 4 4 4 4 4 4 4 4 4 3 3 3 4 5 6 7 8 8 9 10 11 12 13 13 14 15 15 16 16
9 10 11 12 14 14 12 10 10 9 7 7 7 5 5 5 5 4 4 4 3 4 3 3 3 3 4 5 6 7 8 9 9 10 10 11 12 13 13 14 15 15 16 16
9 8 10 11 12 12 11 8 9 9 7 5 5 5 4 4 5 4 4 4 4 3 3 3 3 4 5 6 7 8 9 9 10 10 11 12 12 13 14 14 15 15 16 16
8 7 8 10 11 11 11 13 11 10 8 7 4 4 3 4 4 4 4 4 3 3 3 3 4 5 5 6 7 8 9 10 10 11 12 12 13 14 14 14 15 15 15 16
9 7 8 10 11 12 12 11 10 8 7 6 7 5 5 4 3 3 3 4 4 4 4 4 5 6 6 7 8 9 10 11 11 12 12 13 14 14 15 15 15 16 16 15
10 8 7 7 7 9 10 11 10 8 7 7 5 6 5 5 4 4 3 3 4 4 5 5 6 6 7 8 8 9 10 11 12 12 13 13 14 14 15 15 15 16 16 16
11 10 6 5 5 7 8 9 9 8 7 7 7 6 5 6 6 5 5 5 5 5 5 6 6 7 8 8 9 10 11 11 12 13 13 14 15 15 15 15 16 16 16 16
10 9 7 6 6 7 8 9 9 9 8 7 8 7 6 6 7 6 6 6 6 6 6 7 8 8 9 10 10 11 12 13 14 14 15 15 15 16 16 16 16 16 16 17
8 7 8 7 7 7 8 9 9 10 9 9 8 8 7 7 8 8 8 8 8 8 9 9 10 10 11 12 13 13 14 14 15 15 16 16 17 17 17 17 17 17 17 17
8 8 8 7 8 8 8 8 9 10 10 10 9 10 9 8 9 10 10 10 10 11 11 11 12 13 13 14 15 16 16 16 17 17 17 17 18 19 19 19 19 19 19 19
9 8 9 8 8 8 8 8 9 9 10 11 11 11 10 11 12 12 12 12 12 13 13 14 14 15 15 16 17 17 17 18 19 20 20 21 20 21 21 21 21 21 21 21
10 10 9 9 9 10 9 9 9 10 11 11 12 12 12 13 14 14 13 13 14 15 15 16 16 17 18 19 19 20 20 20 21 22 23 23 23 23 23 23 24 24 23 23
11 11 11 11 11 12 11 11 11 11 12 12 13 13 14 14 15 15 15 15 16 17 17 18 19 20 20 21 22 22 23 23 24 24 25 25 25 25 26 26 26 26 26 26
13 14 14 13 14 14 14 13 13 14 14 14 14 15 15 16 17 16 16 17 18 19 19 20 22 22 23 24 24 25 25 26 27 28 28 27 28 28 28 29 29 29 29 29
16 16 16 16 17 18 16 15 16 17 16 16 17 17 18 18 19 19 19 20 21 21 22 23 24 25 26 27 27 28 28 29 30 31 31 31 31 32 32 32 32 32 32 32
18 18 18 18 20 20 19 19 19 18 19 19 19 19 20 21 21 22 23 24 24 25 26 26 27 28 29 30 30 31 32 33 34 34 35 35 35 35 35 35 35 34 35 35
20 20 21 22 22 22 22 22 21 21 22 22 22 22 23 23 24 25 26 27 28 28 29 30 30 31 32 33 34 35 35 36 37 38 38 38 38 38 38 38 38 37 37 37
22 21 22 23 23 24 24 24 24 24 24 24 25 25 25 26 27 28 29 30 30 31 32 33 34 35 36 37 38 39 39 40 41 41 41 41 41 41 41 41 41 41 41 41
24 23 25 26 26 25 26 26 26 26 26 26 27 27 28 29 30 31 32 33 33 34 35 36 38 39 40 41 41 43 43 44 44 44 44 44 44 44 44 44 44 44 44 44
26 26 27 28 27 28 28 28 28 28 29 29 29 30 30 32 33 34 35 35 36 37 38 39 41 42 43 44 45 46 47 48 47 47 47 47 47 46 47 47 47 47 47 47
Wind_Direction
176 180 183 186 187 190 194 197 195 199 194 208 223 228 226 219 218 215 208 205 212 212 211 221 230 240 255 278 295 307 317 324 329 333 337 340 342 342 344 345 345 344 344 343
166 171 173 177 180 184 190 194 197 194 189 198 203 200 202 198 204 207 206 208 206 202 205 225 240 244 258 277 293 307 312 319 325 329 333 337 339 341 342 344 344 344 344 344
158 164 168 173 174 180 186 191 184 178 174 182 174 178 181 187 197 201 206 207 212 211 213 222 240 255 261 277 294 307 310 317 320 324 330 335 336 338 340 342 342 343 344 345
159 163 167 171 173 176 177 179 171 158 151 157 170 161 160 178 193 205 206 206 213 222 228 228 242 259 268 282 296 307 311 315 317 321 328 332 335 336 337 339 340 342 344 345
156 160 164 169 172 172 168 163 153 146 151 152 161 155 150 170 178 189 197 202 208 214 220 224 242 255 271 288 301 311 316 319 320 321 328 333 334 334 335 337 339 341 344 345
144 151 158 161 164 157 152 148 142 146 152 157 167 170 158 182 208 202 196 199 207 213 220 228 237 255 276 294 309 320 323 324 323 323 327 331 333 334 335 337 338 340 343 345
134 138 148 153 150 148 152 153 147 147 150 155 166 185 191 218 235 224 215 214 217 218 225 234 238 257 277 292 307 316 322 322 321 322 325 328 330 331 333 335 337 339 342 344
126 137 149 155 154 153 160 157 151 148 157 164 177 204 216 229 238 233 227 229 229 224 228 236 248 266 281 292 302 310 317 318 318 319 320 322 325 328 331 332 335 337 339 342
129 140 147 154 158 157 152 145 135 132 147 170 187 220 219 227 230 228 222 225 229 231 236 247 264 277 287 294 302 307 312 315 315 316 317 318 320 323 326 329 332 335 338 340
127 142 147 151 157 159 149 148 144 145 160 173 194 238 245 224 227 230 231 232 232 237 250 266 278 289 293 298 304 308 312 313 314 314 315 316 317 318 321 324 328 330 333 336
141 141 147 155 162 160 155 155 158 150 159 182 195 210 253 258 257 246 240 239 239 246 256 272 285 294 296 302 309 310 313 314 314 313 314 315 316 318 319 321 323 326 329 332
145 136 140 149 155 166 165 168 167 169 176 192 211 224 243 258 257 257 257 260 263 264 267 275 286 295 299 303 307 309 311 313 314 314 314 314 314 315 317 318 320 322 324 326
157 147 148 154 165 176 181 187 182 183 186 199 221 238 237 248 254 258 265 270 270 269 272 278 287 295 299 302 306 310 311 314 314 315 316 316 315 315 315 316 318 319 321 323
174 167 173 194 200 200 197 195 199 198 195 215 229 244 241 248 256 265 269 270 272 272 277 284 291 294 297 300 302 306 309 312 314 314 314 314 314 314 314 314 314 315 317 319
190 190 198 211 216 219 213 210 212 213 215 218 232 251 255 260 264 269 272 273 276 278 281 286 290 293 295 298 300 303 306 308 310 312 312 311 311 311 311 311 310 310 311 312
206 209 211 219 224 227 224 222 223 224 228 235 241 253 259 267 270 273 276 278 278 279 282 285 287 289 293 296 297 300 301 305 307 308 309 308 308 308 308 307 307 308 307 307
218 221 220 226 234 233 235 234 234 235 239 245 249 256 263 268 272 277 280 279 278 279 281 283 286 289 293 296 298 299 300 302 304 304 305 306 306 306 305 305 305 304 304 304
225 228 233 236 242 248 250 247 247 247 248 253 258 263 265 268 274 277 277 277 277 278 279 281 284 287 290 293 296 298 298 300 301 301 301 301 301 302 302 301 301 301 301 300
234 234 236 239 247 254 252 250 252 254 255 259 264 267 269 269 272 276 277 277 278 280 281 282 284 286 289 291 294 296 297 298 299 300 300 298 298 298 299 299 298 297 297 296
238 238 241 242 249 254 255 252 255 258 261 264 268 271 272 272 274 277 278 278 279 281 283 285 286 287 288 290 291 294 295 296 297 298 299 297 297 297 297 297 296 295 294 293
241 241 243 246 250 255 258 258 259 261 265 268 269 272 273 274 277 279 279 280 282 284 286 286 286 287 288 289 290 292 294 295 295 296 296 295 295 295 295 295 294 294 292 291
247 248 248 250 251 256 260 261 262 266 267 269 271 273 274 276 279 280 282 283 284 285 286 287 287 288 288 289 289 291 293 294 295 295 294 293 293 293 293 293 292 292 291 290
250 251 253 254 257 261 262 264 265 267 270 271 272 273 275 277 279 281 283 284 285 286 287 287 288 288 288 289 290 291 292 292 293 293 293 292 292 292 292 291 291 290 290 289
251 254 256 258 259 261 263 265 266 267 269 270 272 274 276 278 280 282 284 285 285 286 287 288 288 288 288 289 289 290 291 291 291 292 292 291 290 290 290 290 290 290 289 288
256 256 257 259 260 262 263 265 267 269 270 272 273 275 277 278 280 282 284 285 286 287 288 288 288 289 289 289 290 290 290 290 290 290 290 290 290 289 289 288 288 288 288 288
257 258 259 261 263 263 264 266 268 270 271 273 275 277 278 280 281 283 285 286 287 287 288 289 289 290 290 291 291 290 290 290 289 289 289 289 289 289 288 288 287 287 287 286
Height
5801 5805 5808 5810 5813 5816 5819 5822 5824 5827 5830 5832 5833 5835 5837 5838 5840 5842 5843 5844 5846 5848 5850 5851 5852 5853 5855 5855 5856 5856 5856 5856 5856 5855 5854 5853 5851 5850 5848 5846 5844 5841 5838 5835
5803 5805 5808 5811 5813 5816 5819 5822 5824 5827 5829 5832 5833 5835 5836 5837 5839 5841 5843 5844 5845 5847 5849 5850 5851 5852 5854 5854 5855 5855 5855 5855 5855 5854 5853 5852 5850 5849 5847 5845 5843 5840 5837 5834
5804 5807 5809 5812 5814 5817 5819 5822 5824 5827 5829 5831 5833 5835 5836 5838 5839 5840 5842 5844 5845 5847 5848 5850 5851 5852 5853 5854 5854 5854 5854 5854 5853 5853 5852 5851 5849 5848 5846 5844 5841 5839 5836 5833
5804 5807 5810 5812 5815 5817 5820 5822 5825 5827 5830 5832 5834 5835 5836 5837 5839 5840 5842 5843 5845 5846 5848 5849 5850 5851 5852 5852 5853 5853 5852 5852 5852 5851 5850 5849 5848 5846 5845 5843 5840 5838 5835 5832
5806 5808 5810 5813 5816 5818 5821 5823 5826 5828 5830 5832 5834 5835 5837 5837 5839 5840 5841 5843 5844 5846 5847 5848 5849 5850 5851 5851 5851 5851 5851 5851 5850 5850 5849 5848 5847 5845 5843 5841 5839 5837 5834 5831
5808 5809 5811 5814 5816 5819 5822 5824 5827 5829 5830 5833 5835 5836 5837 5838 5839 5840 5842 5843 5844 5845 5846 5847 5848 5849 5850 5850 5850 5850 5850 5849 5849 5848 5847 5846 5845 5844 5842 5840 5838 5836 5833 5830
5810 5812 5813 5815 5818 5820 5822 5825 5828 5829 5831 5833 5836 5837 5838 5838 5839 5840 5841 5843 5844 5845 5846 5847 5848 5848 5849 5849 5849 5849 5849 5848 5847 5847 5846 5845 5843 5842 5840 5839 5837 5834 5832 5829
5813 5814 5815 5817 5819 5820 5822 5825 5829 5831 5833 5834 5836 5837 5838 5838 5839 5840 5841 5842 5843 5844 5845 5846 5847 5847 5848 5848 5848 5848 5847 5847 5846 5845 5844 5843 5842 5840 5839 5837 5835 5833 5831 5828
5814 5816 5817 5819 5820 5822 5824 5826 5829 5831 5834 5835 5837 5837 5838 5839 5839 5840 5840 5841 5842 5843 5844 5845 5845 5846 5846 5846 5846 5846 5845 5845 5844 5843 5842 5841 5840 5838 5837 5835 5833 5832 5829 5827
5816 5818 5819 5820 5822 5824 5825 5827 5830 5832 5834 5836 5837 5837 5838 5839 5839 5839 5840 5841 5842 5842 5843 5844 5844 5844 5845 5845 5844 5844 5843 5843 5842 5841 5840 5839 5838 5836 5835 5833 5832 5830 5828 5825
5817 5820 5821 5823 5824 5825 5827 5830 5831 5832 5834 5836 5836 5839 5838 5838 5839 5839 5840 5840 5841 5842 5842 5843 5843 5843 5843 5843 5843 5842 5841 5841 5840 5839 5838 5837 5836 5834 5833 5831 5830 5828 5826 5824
5818 5821 5822 5824 5825 5826 5828 5829 5831 5833 5835 5835 5836 5840 5837 5838 5838 5839 5839 5840 5840 5841 5841 5842 5842 5842 5841 5841 5841 5840 5839 5839 5838 5837 5835 5834 5833 5832 5830 5829 5827 5826 5824 5822
5820 5821 5823 5825 5828 5828 5828 5830 5831 5832 5834 5835 5836 5838 5836 5837 5838 5838 5838 5839 5839 5839 5840 5840 5840 5840 5839 5839 5839 5838 5837 5836 5835 5834 5833 5832 5830 5829 5828 5826 5825 5823 5821 5820
5821 5821 5824 5825 5826 5827 5828 5830 5831 5832 5833 5834 5834 5835 5836 5836 5836 5837 5837 5837 5838 5838 5838 5838 5838 5838 5837 5837 5836 5835 5834 5834 5833 5831 5830 5829 5827 5826 5825 5823 5821 5820 5818 5817
5820 5822 5823 5824 5825 5826 5827 5829 5830 5831 5832 5832 5833 5833 5834 5834 5835 5835 5835 5836 5836 5836 5836 5835 5835 5835 5835 5834 5833 5832 5832 5831 5830 5828 5827 5826 5824 5823 5821 5820 5818 5817 5815 5813
5820 5821 5822 5823 5824 5825 5826 5827 5828 5829 5830 5830 5831 5832 5832 5833 5833 5833 5833 5833 5833 5833 5833 5833 5832 5832 5831 5831 5830 5829 5828 5827 5826 5825 5823 5822 5820 5819 5817 5816 5814 5813 5811 5810
5818 5820 5821 5822 5822 5823 5825 5826 5826 5827 5828 5829 5829 5830 5830 5830 5830 5830 5830 5830 5830 5830 5829 5829 5829 5828 5828 5827 5826 5825 5824 5823 5822 5820 5819 5818 5816 5814 5813 5811 5809 5808 5806 5805
5816 5817 5819 5820 5822 5822 5825 5823 5824 5825 5826 5826 5826 5827 5827 5827 5827 5826 5827 5827 5826 5826 5825 5825 5825 5824 5823 5822 5821 5820 5819 5818 5817 5815 5814 5812 5811 5809 5807 5806 5804 5802 5801 5799
5814 5815 5816 5818 5818 5819 5820 5821 5821 5822 5823 5823 5823 5823 5823 5823 5823 5823 5823 5823 5822 5822 5821 5821 5820 5819 5818 5817 5816 5815 5814 5812 5811 5809 5808 5806 5804 5803 5801 5799 5797 5796 5794 5793
5811 5812 5814 5814 5815 5816 5817 5818 5818 5820 5820 5820 5820 5820 5819 5819 5819 5819 5819 5818 5818 5817 5816 5815 5814 5813 5812 5811 5810 5809 5807 5806 5804 5803 5801 5799 5797 5795 5794 5792 5790 5788 5786 5785
5807 5808 5809 5811 5811 5811 5813 5814 5815 5817 5817 5816 5816 5815 5815 5814 5814 5814 5814 5813 5812 5811 5810 5809 5808 5807 5806 5804 5803 5802 5800 5798 5797 5795 5793 5791 5789 5787 5785 5783 5781 5779 5777 5776
5803 5804 5805 5806 5806 5809 5809 5809 5811 5811 5811 5811 5811 5810 5810 5809 5809 5808 5807 5807 5806 5805 5804 5802 5801 5800 5798 5797 5795 5794 5792 5790 5788 5786 5784 5781 5779 5776 5774 5772 5770 5768 5767 5765
5797 5799 5800 5801 5803 5803 5803 5804 5804 5805 5805 5805 5805 5804 5804 5803 5802 5801 5800 5799 5798 5797 5796 5794 5793 5791 5790 5788 5786 5784 5782 5780 5778 5775 5773 5770 5768 5765 5763 5761 5759 5757 5755 5754
5792 5793 5794 5795 5795 5796 5797 5798 5798 5798 5798 5798 5798 5797 5797 5796 5795 5794 5792 5791 5790 5789 5787 5785 5784 5782 5780 5778 5776 5773 5771 5769 5766 5764 5761 5758 5756 5753 5751 5749 5747 5745 5743 5741
5786 5787 5787 5787 5789 5790 5790 5791 5791 5791 5791 5791 5790 5790 5789 5788 5787 5785 5784 5782 5781 5779 5777 5775 5773 5771 5769 5767 5764 5761 5759 5756 5754 5751 5748 5746 5743 5741 5738 5736 5734 5731 5730 5727
5779 5780 5781 5781 5782 5783 5783 5783 5783 5783 5783 5782 5782 5781 5780 5779 5778 5776 5774 5772 5771 5769 5766 5764 5762 5759 5757 5754 5751 5748 5745 5742 5740 5737 5735 5732 5729 5726 5724 5722 5720 5717 5715 5713